User: anonymous   Login
Location: Enborne
(51.3833°N, 1.3667°W)
Time: 03:45:29
(UTC+00:00)
Language:

Iridium 4 Rocket - Orbit

View from above orbital plane
View from above orbital plane
View from above satellite
View from above satellite

Ground track
Ground track

The orbit data is extracted from the following two-line orbital elements,

1 24797U 97020F   20329.56010023  .00000203  00000-0  36856-4 0  9997
2 24797  86.8974 253.1419 0227228  87.7592  90.3573 14.44200716239267
Epoch (UTC): 24 November 2020 13:26:32
Eccentricity: 0.0227228
inclination: 86.8974°
perigee height: 583 km
apogee height: 906 km
right ascension of ascending node: 253.1419°
argument of perigee: 87.7592°
revolutions per day: 14.44200716
mean anomaly at epoch: 90.3573°
orbit number at epoch: 23926

The dashed part of the orbit path shows where the satellite is in the earth's shadow,  

DLR